owner,sensor,date,latitude,longitude,vertical_datum,mass_concentration_of_oxygen_in_sea_water,qcFlag 
LUMCON,ioos:station:LUMCON:101:1,2017-04-01T00:00:00Z,29.2533,-90.6633,89.5,6.79,1111122 
LUMCON,ioos:station:LUMCON:101:1,2017-04-01T00:15:00Z,29.2533,-90.6633,88.7,6.73,1111122 
LUMCON,ioos:station:LUMCON:101:1,2017-04-01T00:30:00Z,29.2533,-90.6633,86.2,6.56,1111122 
LUMCON,ioos:station:LUMCON:101:1,2017-04-01T00:45:00Z,29.2533,-90.6633,84.3,6.42,1111122 
LUMCON,ioos:station:LUMCON:101:1,2017-04-01T01:00:00Z,29.2533,-90.6633,83.0,6.33,1111122 
LUMCON,ioos:station:LUMCON:101:1,2017-04-01T01:15:00Z,29.2533,-90.6633,82.4,6.28,1111122 
LUMCON,ioos:station:LUMCON:101:1,2017-04-01T01:30:00Z,29.2533,-90.6633,82.2,6.27,1111122 
LUMCON,ioos:station:LUMCON:101:1,2017-04-01T01:45:00Z,29.2533,-90.6633,82.6,6.31,1111122 
LUMCON,ioos:station:LUMCON:101:1,2017-04-01T02:00:00Z,29.2533,-90.6633,83.4,6.37,1111122 
LUMCON,ioos:station:LUMCON:101:1,2017-04-01T02:15:00Z,29.2533,-90.6633,83.3,6.37,1111122 
LUMCON,ioos:station:LUMCON:101:1,2017-04-01T02:30:00Z,29.2533,-90.6633,82.6,6.33,1111122 
LUMCON,ioos:station:LUMCON:101:1,2017-04-01T02:45:00Z,29.2533,-90.6633,83.5,6.4,1111122 
LUMCON,ioos:station:LUMCON:101:1,2017-04-01T03:00:00Z,29.2533,-90.6633,84.7,6.51,1111122 
LUMCON,ioos:station:LUMCON:101:1,2017-04-01T03:15:00Z,29.2533,-90.6633,84.3,6.48,1111122 
LUMCON,ioos:station:LUMCON:101:1,2017-04-01T03:30:00Z,29.2533,-90.6633,86.0,6.62,1111122 
LUMCON,ioos:station:LUMCON:101:1,2017-04-01T03:45:00Z,29.2533,-90.6633,85.7,6.62,1111122 
LUMCON,ioos:station:LUMCON:101:1,2017-04-01T04:00:00Z,29.2533,-90.6633,83.2,6.44,1111122 
LUMCON,ioos:station:LUMCON:101:1,2017-04-01T04:15:00Z,29.2533,-90.6633,82.9,6.43,1111122 
LUMCON,ioos:station:LUMCON:101:1,2017-04-01T04:30:00Z,29.2533,-90.6633,83.0,6.45,1111122 
LUMCON,ioos:station:LUMCON:101:1,2017-04-01T04:45:00Z,29.2533,-90.6633,85.3,6.64,1111122 
LUMCON,ioos:station:LUMCON:101:1,2017-04-01T05:00:00Z,29.2533,-90.6633,84.4,6.58,1111122 
LUMCON,ioos:station:LUMCON:101:1,2017-04-01T05:15:00Z,29.2533,-90.6633,83.8,6.54,1111122 
LUMCON,ioos:station:LUMCON:101:1,2017-04-01T05:30:00Z,29.2533,-90.6633,83.5,6.53,1111122 
LUMCON,ioos:station:LUMCON:101:1,2017-04-01T05:45:00Z,29.2533,-90.6633,83.7,6.56,1111122 
LUMCON,ioos:station:LUMCON:101:1,2017-04-01T06:00:00Z,29.2533,-90.6633,84.7,6.64,1111122 
LUMCON,ioos:station:LUMCON:101:1,2017-04-01T06:15:00Z,29.2533,-90.6633,83.6,6.57,1111122 
LUMCON,ioos:station:LUMCON:101:1,2017-04-01T06:30:00Z,29.2533,-90.6633,83.0,6.52,1111122 
LUMCON,ioos:station:LUMCON:101:1,2017-04-01T06:45:00Z,29.2533,-90.6633,83.0,6.53,1111122 
LUMCON,ioos:station:LUMCON:101:1,2017-04-01T07:00:00Z,29.2533,-90.6633,82.8,6.53,1111122 
LUMCON,ioos:station:LUMCON:101:1,2017-04-01T07:15:00Z,29.2533,-90.6633,82.7,6.53,1111122 
LUMCON,ioos:station:LUMCON:101:1,2017-04-01T07:30:00Z,29.2533,-90.6633,82.3,6.51,1111122 
LUMCON,ioos:station:LUMCON:101:1,2017-04-01T07:45:00Z,29.2533,-90.6633,81.6,6.46,1111122 
LUMCON,ioos:station:LUMCON:101:1,2017-04-01T08:00:00Z,29.2533,-90.6633,77.82,6.16,1111122 
LUMCON,ioos:station:LUMCON:101:1,2017-04-01T08:15:00Z,29.2533,-90.6633,78.51,6.22,1111122 
LUMCON,ioos:station:LUMCON:101:1,2017-04-01T08:30:00Z,29.2533,-90.6633,77.3,6.11,1111122 
LUMCON,ioos:station:LUMCON:101:1,2017-04-01T08:45:00Z,29.2533,-90.6633,78.47,6.2,1111122 
LUMCON,ioos:station:LUMCON:101:1,2017-04-01T09:00:00Z,29.2533,-90.6633,78.44,6.18,1111122 
LUMCON,ioos:station:LUMCON:101:1,2017-04-01T09:15:00Z,29.2533,-90.6633,79.15,6.24,1111122 
LUMCON,ioos:station:LUMCON:101:1,2017-04-01T09:30:00Z,29.2533,-90.6633,79.77,6.31,1111122 
LUMCON,ioos:station:LUMCON:101:1,2017-04-01T09:45:00Z,29.2533,-90.6633,79.44,6.28,1111122 
LUMCON,ioos:station:LUMCON:101:1,2017-04-01T10:00:00Z,29.2533,-90.6633,77.75,6.13,1111122 
LUMCON,ioos:station:LUMCON:101:1,2017-04-01T10:15:00Z,29.2533,-90.6633,78.67,6.2,1111122 
LUMCON,ioos:station:LUMCON:101:1,2017-04-01T10:30:00Z,29.2533,-90.6633,79.36,6.27,1111122 
LUMCON,ioos:station:LUMCON:101:1,2017-04-01T10:45:00Z,29.2533,-90.6633,79.46,6.29,1111122 
LUMCON,ioos:station:LUMCON:101:1,2017-04-01T11:00:00Z,29.2533,-90.6633,79.37,6.27,1111122 
LUMCON,ioos:station:LUMCON:101:1,2017-04-01T11:15:00Z,29.2533,-90.6633,81.5,6.42,1111122 
LUMCON,ioos:station:LUMCON:101:1,2017-04-01T11:30:00Z,29.2533,-90.6633,82.2,6.48,1111122 
LUMCON,ioos:station:LUMCON:101:1,2017-04-01T11:45:00Z,29.2533,-90.6633,82.4,6.5,1111122 
LUMCON,ioos:station:LUMCON:101:1,2017-04-01T12:00:00Z,29.2533,-90.6633,82.5,6.5,1111122 
LUMCON,ioos:station:LUMCON:101:1,2017-04-01T12:15:00Z,29.2533,-90.6633,82.1,6.47,1111122 
LUMCON,ioos:station:LUMCON:101:1,2017-04-01T12:30:00Z,29.2533,-90.6633,80.6,6.36,1111122 
LUMCON,ioos:station:LUMCON:101:1,2017-04-01T12:45:00Z,29.2533,-90.6633,79.49,6.29,1111122 
LUMCON,ioos:station:LUMCON:101:1,2017-04-01T13:00:00Z,29.2533,-90.6633,80.7,6.37,1111122 
LUMCON,ioos:station:LUMCON:101:1,2017-04-01T13:15:00Z,29.2533,-90.6633,80.7,6.38,1111122 
LUMCON,ioos:station:LUMCON:101:1,2017-04-01T13:30:00Z,29.2533,-90.6633,80.4,6.35,1111122 
LUMCON,ioos:station:LUMCON:101:1,2017-04-01T13:45:00Z,29.2533,-90.6633,81.2,6.42,1111122 
LUMCON,ioos:station:LUMCON:101:1,2017-04-01T14:00:00Z,29.2533,-90.6633,82.4,6.51,1111122 
LUMCON,ioos:station:LUMCON:101:1,2017-04-01T14:15:00Z,29.2533,-90.6633,82.0,6.48,1111122 
LUMCON,ioos:station:LUMCON:101:1,2017-04-01T14:30:00Z,29.2533,-90.6633,82.2,6.5,1111122 
LUMCON,ioos:station:LUMCON:101:1,2017-04-01T14:45:00Z,29.2533,-90.6633,83.5,6.6,1111122 
LUMCON,ioos:station:LUMCON:101:1,2017-04-01T15:00:00Z,29.2533,-90.6633,81.7,6.46,1111122 
LUMCON,ioos:station:LUMCON:101:1,2017-04-01T15:15:00Z,29.2533,-90.6633,77.81,6.15,1111122 
LUMCON,ioos:station:LUMCON:101:1,2017-04-01T15:30:00Z,29.2533,-90.6633,78.73,6.22,1111122 
LUMCON,ioos:station:LUMCON:101:1,2017-04-01T15:45:00Z,29.2533,-90.6633,79.45,6.27,1111122 
LUMCON,ioos:station:LUMCON:101:1,2017-04-01T16:00:00Z,29.2533,-90.6633,80.1,6.32,1111122 
LUMCON,ioos:station:LUMCON:101:1,2017-04-01T16:15:00Z,29.2533,-90.6633,82.6,6.51,1111122 
LUMCON,ioos:station:LUMCON:101:1,2017-04-01T16:30:00Z,29.2533,-90.6633,84.2,6.63,1111122 
LUMCON,ioos:station:LUMCON:101:1,2017-04-01T16:45:00Z,29.2533,-90.6633,86.3,6.79,1111122 
LUMCON,ioos:station:LUMCON:101:1,2017-04-01T17:00:00Z,29.2533,-90.6633,88.1,6.93,1111122 
LUMCON,ioos:station:LUMCON:101:1,2017-04-01T17:15:00Z,29.2533,-90.6633,90.2,7.08,1111122 
LUMCON,ioos:station:LUMCON:101:1,2017-04-01T17:30:00Z,29.2533,-90.6633,88.5,6.93,1111122 
LUMCON,ioos:station:LUMCON:101:1,2017-04-01T17:45:00Z,29.2533,-90.6633,89.6,7.01,1111122 
LUMCON,ioos:station:LUMCON:101:1,2017-04-01T18:00:00Z,29.2533,-90.6633,89.4,6.99,1111122 
LUMCON,ioos:station:LUMCON:101:1,2017-04-01T18:15:00Z,29.2533,-90.6633,90.9,7.1,1111122 
LUMCON,ioos:station:LUMCON:101:1,2017-04-01T18:30:00Z,29.2533,-90.6633,94.2,7.34,1111122 
LUMCON,ioos:station:LUMCON:101:1,2017-04-01T18:45:00Z,29.2533,-90.6633,98.5,7.67,1111122 
LUMCON,ioos:station:LUMCON:101:1,2017-04-01T19:00:00Z,29.2533,-90.6633,99.5,7.73,1111122 
LUMCON,ioos:station:LUMCON:101:1,2017-04-01T19:15:00Z,29.2533,-90.6633,101.1,7.84,1111122 
LUMCON,ioos:station:LUMCON:101:1,2017-04-01T19:30:00Z,29.2533,-90.6633,100.4,7.78,1111122 
LUMCON,ioos:station:LUMCON:101:1,2017-04-01T19:45:00Z,29.2533,-90.6633,100.0,7.73,1111122 
LUMCON,ioos:station:LUMCON:101:1,2017-04-01T20:00:00Z,29.2533,-90.6633,102.7,7.93,1111122 
LUMCON,ioos:station:LUMCON:101:1,2017-04-01T20:15:00Z,29.2533,-90.6633,104.6,8.06,1111122 
LUMCON,ioos:station:LUMCON:101:1,2017-04-01T20:30:00Z,29.2533,-90.6633,102.8,7.91,1111122 
LUMCON,ioos:station:LUMCON:101:1,2017-04-01T20:45:00Z,29.2533,-90.6633,105.2,8.08,1111122 
LUMCON,ioos:station:LUMCON:101:1,2017-04-01T21:00:00Z,29.2533,-90.6633,105.1,8.06,1111122 
LUMCON,ioos:station:LUMCON:101:1,2017-04-01T21:15:00Z,29.2533,-90.6633,99.1,7.61,1111122 
LUMCON,ioos:station:LUMCON:101:1,2017-04-01T21:30:00Z,29.2533,-90.6633,95.3,7.32,1111122 
LUMCON,ioos:station:LUMCON:101:1,2017-04-01T21:45:00Z,29.2533,-90.6633,88.0,6.76,1111122 
LUMCON,ioos:station:LUMCON:101:1,2017-04-01T22:00:00Z,29.2533,-90.6633,92.3,7.09,1111122 
LUMCON,ioos:station:LUMCON:101:1,2017-04-01T22:15:00Z,29.2533,-90.6633,104.7,8.02,1111122 
LUMCON,ioos:station:LUMCON:101:1,2017-04-01T22:30:00Z,29.2533,-90.6633,92.3,7.09,1111122 
LUMCON,ioos:station:LUMCON:101:1,2017-04-01T22:45:00Z,29.2533,-90.6633,98.4,7.53,1111122 
LUMCON,ioos:station:LUMCON:101:1,2017-04-01T23:00:00Z,29.2533,-90.6633,92.5,7.09,1111122 
LUMCON,ioos:station:LUMCON:101:1,2017-04-01T23:15:00Z,29.2533,-90.6633,83.2,6.39,1111122 
LUMCON,ioos:station:LUMCON:101:1,2017-04-01T23:30:00Z,29.2533,-90.6633,73.92,5.67,1111122 
LUMCON,ioos:station:LUMCON:101:1,2017-04-01T23:45:00Z,29.2533,-90.6633,92.5,7.1,1111122 
LUMCON,ioos:station:LUMCON:101:1,2017-04-02T00:00:00Z,29.2533,-90.6633,96.7,7.41,1111122 
LUMCON,ioos:station:LUMCON:101:1,2017-04-02T00:15:00Z,29.2533,-90.6633,93.4,7.16,1111122 
LUMCON,ioos:station:LUMCON:101:1,2017-04-02T00:30:00Z,29.2533,-90.6633,92.8,7.11,1111122 
LUMCON,ioos:station:LUMCON:101:1,2017-04-02T00:45:00Z,29.2533,-90.6633,95.3,7.3,1111122 
LUMCON,ioos:station:LUMCON:101:1,2017-04-02T01:00:00Z,29.2533,-90.6633,94.2,7.22,1111122 
LUMCON,ioos:station:LUMCON:101:1,2017-04-02T01:15:00Z,29.2533,-90.6633,92.2,7.06,1111122 
LUMCON,ioos:station:LUMCON:101:1,2017-04-02T01:30:00Z,29.2533,-90.6633,91.5,7.01,1111122 
LUMCON,ioos:station:LUMCON:101:1,2017-04-02T01:45:00Z,29.2533,-90.6633,88.3,6.77,1111122 
LUMCON,ioos:station:LUMCON:101:1,2017-04-02T02:00:00Z,29.2533,-90.6633,86.7,6.66,1111122 
LUMCON,ioos:station:LUMCON:101:1,2017-04-02T02:15:00Z,29.2533,-90.6633,86.2,6.62,1111122 
LUMCON,ioos:station:LUMCON:101:1,2017-04-02T02:30:00Z,29.2533,-90.6633,85.2,6.56,1111122 
LUMCON,ioos:station:LUMCON:101:1,2017-04-02T02:45:00Z,29.2533,-90.6633,84.5,6.52,1111122 
LUMCON,ioos:station:LUMCON:101:1,2017-04-02T03:00:00Z,29.2533,-90.6633,83.2,6.43,1111122 
LUMCON,ioos:station:LUMCON:101:1,2017-04-02T03:15:00Z,29.2533,-90.6633,82.1,6.34,1111122 
LUMCON,ioos:station:LUMCON:101:1,2017-04-02T03:30:00Z,29.2533,-90.6633,80.2,6.19,1111122 
LUMCON,ioos:station:LUMCON:101:1,2017-04-02T03:45:00Z,29.2533,-90.6633,79.31,6.13,1111122 
LUMCON,ioos:station:LUMCON:101:1,2017-04-02T04:00:00Z,29.2533,-90.6633,78.09,6.04,1111122 
LUMCON,ioos:station:LUMCON:101:1,2017-04-02T04:15:00Z,29.2533,-90.6633,77.91,6.04,1111122 
LUMCON,ioos:station:LUMCON:101:1,2017-04-02T04:30:00Z,29.2533,-90.6633,76.69,5.94,1111122 
LUMCON,ioos:station:LUMCON:101:1,2017-04-02T04:45:00Z,29.2533,-90.6633,75.45,5.86,1111122 
LUMCON,ioos:station:LUMCON:101:1,2017-04-02T05:00:00Z,29.2533,-90.6633,75.44,5.86,1111122 
LUMCON,ioos:station:LUMCON:101:1,2017-04-02T05:15:00Z,29.2533,-90.6633,74.49,5.79,1111122 
LUMCON,ioos:station:LUMCON:101:1,2017-04-02T05:30:00Z,29.2533,-90.6633,73.97,5.75,1111122 
LUMCON,ioos:station:LUMCON:101:1,2017-04-02T05:45:00Z,29.2533,-90.6633,75.19,5.85,1111122 
LUMCON,ioos:station:LUMCON:101:1,2017-04-02T06:00:00Z,29.2533,-90.6633,75.54,5.88,1111122 
LUMCON,ioos:station:LUMCON:101:1,2017-04-02T06:15:00Z,29.2533,-90.6633,75.67,5.89,1111122 
LUMCON,ioos:station:LUMCON:101:1,2017-04-02T06:30:00Z,29.2533,-90.6633,73.85,5.75,1111122 
LUMCON,ioos:station:LUMCON:101:1,2017-04-02T06:45:00Z,29.2533,-90.6633,74.7,5.82,1111122 
LUMCON,ioos:station:LUMCON:101:1,2017-04-02T07:00:00Z,29.2533,-90.6633,73.9,5.76,1111122 
LUMCON,ioos:station:LUMCON:101:1,2017-04-02T07:15:00Z,29.2533,-90.6633,73.49,5.73,1111122 
LUMCON,ioos:station:LUMCON:101:1,2017-04-02T07:30:00Z,29.2533,-90.6633,72.16,5.63,1111122 
LUMCON,ioos:station:LUMCON:101:1,2017-04-02T07:45:00Z,29.2533,-90.6633,67.87,5.29,1111122 
LUMCON,ioos:station:LUMCON:101:1,2017-04-02T08:00:00Z,29.2533,-90.6633,71.49,5.58,1111122 
LUMCON,ioos:station:LUMCON:101:1,2017-04-02T08:15:00Z,29.2533,-90.6633,74.13,5.78,1111122 
LUMCON,ioos:station:LUMCON:101:1,2017-04-02T08:30:00Z,29.2533,-90.6633,76.1,5.94,1111122 
LUMCON,ioos:station:LUMCON:101:1,2017-04-02T08:45:00Z,29.2533,-90.6633,78.52,6.12,1111122 
LUMCON,ioos:station:LUMCON:101:1,2017-04-02T09:00:00Z,29.2533,-90.6633,77.66,6.06,1111122 
LUMCON,ioos:station:LUMCON:101:1,2017-04-02T09:15:00Z,29.2533,-90.6633,71.33,5.57,1111122 
LUMCON,ioos:station:LUMCON:101:1,2017-04-02T09:30:00Z,29.2533,-90.6633,74.77,5.83,1111122 
LUMCON,ioos:station:LUMCON:101:1,2017-04-02T09:45:00Z,29.2533,-90.6633,77.47,6.04,1111122 
LUMCON,ioos:station:LUMCON:101:1,2017-04-02T10:00:00Z,29.2533,-90.6633,76.05,5.93,1111122 
LUMCON,ioos:station:LUMCON:101:1,2017-04-02T10:15:00Z,29.2533,-90.6633,79.06,6.16,1111122 
LUMCON,ioos:station:LUMCON:101:1,2017-04-02T10:30:00Z,29.2533,-90.6633,81.1,6.29,1111122 
LUMCON,ioos:station:LUMCON:101:1,2017-04-02T10:45:00Z,29.2533,-90.6633,82.2,6.36,1111122 
LUMCON,ioos:station:LUMCON:101:1,2017-04-02T11:00:00Z,29.2533,-90.6633,82.4,6.36,1111122 
LUMCON,ioos:station:LUMCON:101:1,2017-04-02T11:15:00Z,29.2533,-90.6633,82.1,6.33,1111122 
LUMCON,ioos:station:LUMCON:101:1,2017-04-02T11:30:00Z,29.2533,-90.6633,83.5,6.44,1111122 
LUMCON,ioos:station:LUMCON:101:1,2017-04-02T11:45:00Z,29.2533,-90.6633,73.63,5.66,1111122 
LUMCON,ioos:station:LUMCON:101:1,2017-04-02T12:00:00Z,29.2533,-90.6633,81.0,6.24,1111122 
LUMCON,ioos:station:LUMCON:101:1,2017-04-02T12:15:00Z,29.2533,-90.6633,83.5,6.43,1111122 
LUMCON,ioos:station:LUMCON:101:1,2017-04-02T12:30:00Z,29.2533,-90.6633,85.1,6.55,1111122 
LUMCON,ioos:station:LUMCON:101:1,2017-04-02T12:45:00Z,29.2533,-90.6633,85.0,6.55,1111122 
LUMCON,ioos:station:LUMCON:101:1,2017-04-02T13:00:00Z,29.2533,-90.6633,85.3,6.58,1111122 
LUMCON,ioos:station:LUMCON:101:1,2017-04-02T13:15:00Z,29.2533,-90.6633,84.6,6.52,1111122 
LUMCON,ioos:station:LUMCON:101:1,2017-04-02T13:30:00Z,29.2533,-90.6633,86.1,6.64,1111122 
LUMCON,ioos:station:LUMCON:101:1,2017-04-02T13:45:00Z,29.2533,-90.6633,84.9,6.55,1111122 
LUMCON,ioos:station:LUMCON:101:1,2017-04-02T14:00:00Z,29.2533,-90.6633,86.2,6.65,1111122 
LUMCON,ioos:station:LUMCON:101:1,2017-04-02T14:15:00Z,29.2533,-90.6633,86.3,6.66,1111122 
LUMCON,ioos:station:LUMCON:101:1,2017-04-02T14:30:00Z,29.2533,-90.6633,82.5,6.37,1111122 
LUMCON,ioos:station:LUMCON:101:1,2017-04-02T14:45:00Z,29.2533,-90.6633,84.2,6.5,1111122 
LUMCON,ioos:station:LUMCON:101:1,2017-04-02T15:00:00Z,29.2533,-90.6633,85.5,6.6,1111122 
LUMCON,ioos:station:LUMCON:101:1,2017-04-02T15:15:00Z,29.2533,-90.6633,87.3,6.73,1111122 
LUMCON,ioos:station:LUMCON:101:1,2017-04-02T15:30:00Z,29.2533,-90.6633,89.3,6.87,1111122 
LUMCON,ioos:station:LUMCON:101:1,2017-04-02T15:45:00Z,29.2533,-90.6633,89.0,6.84,1111122 
LUMCON,ioos:station:LUMCON:101:1,2017-04-02T16:00:00Z,29.2533,-90.6633,90.0,6.91,1111122 
LUMCON,ioos:station:LUMCON:101:1,2017-04-02T16:15:00Z,29.2533,-90.6633,89.9,6.88,1111122 
LUMCON,ioos:station:LUMCON:101:1,2017-04-02T16:30:00Z,29.2533,-90.6633,88.7,6.79,1111122 
LUMCON,ioos:station:LUMCON:101:1,2017-04-02T16:45:00Z,29.2533,-90.6633,89.8,6.85,1111122 
LUMCON,ioos:station:LUMCON:101:1,2017-04-02T17:00:00Z,29.2533,-90.6633,89.6,6.83,1111122 
LUMCON,ioos:station:LUMCON:101:1,2017-04-02T17:15:00Z,29.2533,-90.6633,89.8,6.83,1111122 
LUMCON,ioos:station:LUMCON:101:1,2017-04-02T17:30:00Z,29.2533,-90.6633,90.2,6.85,1111122 
LUMCON,ioos:station:LUMCON:101:1,2017-04-02T17:45:00Z,29.2533,-90.6633,90.1,6.84,1111122 
LUMCON,ioos:station:LUMCON:101:1,2017-04-02T18:00:00Z,29.2533,-90.6633,90.9,6.89,1111122 
LUMCON,ioos:station:LUMCON:101:1,2017-04-02T18:15:00Z,29.2533,-90.6633,91.0,6.89,1111122 
LUMCON,ioos:station:LUMCON:101:1,2017-04-02T18:30:00Z,29.2533,-90.6633,91.3,6.91,1111122 
LUMCON,ioos:station:LUMCON:101:1,2017-04-02T18:45:00Z,29.2533,-90.6633,92.0,6.96,1111122 
LUMCON,ioos:station:LUMCON:101:1,2017-04-02T19:00:00Z,29.2533,-90.6633,91.6,6.92,1111122 
LUMCON,ioos:station:LUMCON:101:1,2017-04-02T19:15:00Z,29.2533,-90.6633,93.0,7.01,1111122 
LUMCON,ioos:station:LUMCON:101:1,2017-04-02T19:30:00Z,29.2533,-90.6633,93.4,7.03,1111122 
LUMCON,ioos:station:LUMCON:101:1,2017-04-02T19:45:00Z,29.2533,-90.6633,93.6,7.04,1111122 
LUMCON,ioos:station:LUMCON:101:1,2017-04-02T20:00:00Z,29.2533,-90.6633,93.7,7.03,1111122 
LUMCON,ioos:station:LUMCON:101:1,2017-04-02T20:15:00Z,29.2533,-90.6633,94.3,7.07,1111122 
LUMCON,ioos:station:LUMCON:101:1,2017-04-02T20:30:00Z,29.2533,-90.6633,95.3,7.14,1111122 
LUMCON,ioos:station:LUMCON:101:1,2017-04-02T20:45:00Z,29.2533,-90.6633,95.8,7.18,1111122 
LUMCON,ioos:station:LUMCON:101:1,2017-04-02T21:00:00Z,29.2533,-90.6633,96.4,7.21,1111122 
LUMCON,ioos:station:LUMCON:101:1,2017-04-02T21:15:00Z,29.2533,-90.6633,96.6,7.22,1111122 
LUMCON,ioos:station:LUMCON:101:1,2017-04-02T21:30:00Z,29.2533,-90.6633,95.3,7.13,1111122 
LUMCON,ioos:station:LUMCON:101:1,2017-04-02T21:45:00Z,29.2533,-90.6633,96.5,7.22,1111122 
LUMCON,ioos:station:LUMCON:101:1,2017-04-02T22:00:00Z,29.2533,-90.6633,96.3,7.2,1111122 
LUMCON,ioos:station:LUMCON:101:1,2017-04-02T22:15:00Z,29.2533,-90.6633,96.2,7.18,1111122 
LUMCON,ioos:station:LUMCON:101:1,2017-04-02T22:30:00Z,29.2533,-90.6633,97.0,7.24,1111122 
LUMCON,ioos:station:LUMCON:101:1,2017-04-02T22:45:00Z,29.2533,-90.6633,95.9,7.16,1111122 
LUMCON,ioos:station:LUMCON:101:1,2017-04-02T23:00:00Z,29.2533,-90.6633,95.5,7.13,1111122 
LUMCON,ioos:station:LUMCON:101:1,2017-04-02T23:15:00Z,29.2533,-90.6633,95.8,7.15,1111122 
LUMCON,ioos:station:LUMCON:101:1,2017-04-02T23:30:00Z,29.2533,-90.6633,95.9,7.16,1111122 
LUMCON,ioos:station:LUMCON:101:1,2017-04-02T23:45:00Z,29.2533,-90.6633,93.8,7.0,1111122 
LUMCON,ioos:station:LUMCON:101:1,2017-04-03T00:00:00Z,29.2533,-90.6633,93.4,6.97,1111122 
LUMCON,ioos:station:LUMCON:101:1,2017-04-03T00:15:00Z,29.2533,-90.6633,88.5,6.6,1111122 
LUMCON,ioos:station:LUMCON:101:1,2017-04-03T00:30:00Z,29.2533,-90.6633,86.8,6.47,1111122 
LUMCON,ioos:station:LUMCON:101:1,2017-04-03T00:45:00Z,29.2533,-90.6633,87.7,6.54,1111122 
LUMCON,ioos:station:LUMCON:101:1,2017-04-03T01:00:00Z,29.2533,-90.6633,86.2,6.43,1111122 
LUMCON,ioos:station:LUMCON:101:1,2017-04-03T01:15:00Z,29.2533,-90.6633,89.7,6.7,1111122 
LUMCON,ioos:station:LUMCON:101:1,2017-04-03T01:30:00Z,29.2533,-90.6633,86.3,6.45,1111122 
LUMCON,ioos:station:LUMCON:101:1,2017-04-03T01:45:00Z,29.2533,-90.6633,85.8,6.41,1111122 
LUMCON,ioos:station:LUMCON:101:1,2017-04-03T02:00:00Z,29.2533,-90.6633,84.0,6.28,1111122 
LUMCON,ioos:station:LUMCON:101:1,2017-04-03T02:15:00Z,29.2533,-90.6633,83.9,6.27,1111122 
LUMCON,ioos:station:LUMCON:101:1,2017-04-03T02:30:00Z,29.2533,-90.6633,84.9,6.35,1111122 
LUMCON,ioos:station:LUMCON:101:1,2017-04-03T02:45:00Z,29.2533,-90.6633,83.7,6.26,1111122 
LUMCON,ioos:station:LUMCON:101:1,2017-04-03T03:00:00Z,29.2533,-90.6633,80.6,6.02,1111122 
LUMCON,ioos:station:LUMCON:101:1,2017-04-03T03:15:00Z,29.2533,-90.6633,77.83,5.82,1111122 
LUMCON,ioos:station:LUMCON:101:1,2017-04-03T03:30:00Z,29.2533,-90.6633,76.41,5.71,1111122 
LUMCON,ioos:station:LUMCON:101:1,2017-04-03T03:45:00Z,29.2533,-90.6633,75.18,5.62,1111122 
LUMCON,ioos:station:LUMCON:101:1,2017-04-03T04:00:00Z,29.2533,-90.6633,74.14,5.55,1111122 
LUMCON,ioos:station:LUMCON:101:1,2017-04-03T04:15:00Z,29.2533,-90.6633,74.06,5.54,1111122 
LUMCON,ioos:station:LUMCON:101:1,2017-04-03T04:30:00Z,29.2533,-90.6633,74.31,5.56,1111122 
LUMCON,ioos:station:LUMCON:101:1,2017-04-03T04:45:00Z,29.2533,-90.6633,74.63,5.59,1111122 
LUMCON,ioos:station:LUMCON:101:1,2017-04-03T05:00:00Z,29.2533,-90.6633,73.46,5.5,1111122 
LUMCON,ioos:station:LUMCON:101:1,2017-04-03T05:15:00Z,29.2533,-90.6633,73.24,5.49,1111122 
LUMCON,ioos:station:LUMCON:101:1,2017-04-03T05:30:00Z,29.2533,-90.6633,71.1,5.33,1111122 
LUMCON,ioos:station:LUMCON:101:1,2017-04-03T05:45:00Z,29.2533,-90.6633,69.02,5.18,1111122 
LUMCON,ioos:station:LUMCON:101:1,2017-04-03T06:00:00Z,29.2533,-90.6633,68.62,5.15,1111122 
LUMCON,ioos:station:LUMCON:101:1,2017-04-03T06:15:00Z,29.2533,-90.6633,70.23,5.27,1111122 
LUMCON,ioos:station:LUMCON:101:1,2017-04-03T06:30:00Z,29.2533,-90.6633,69.13,5.19,1111122 
LUMCON,ioos:station:LUMCON:101:1,2017-04-03T06:45:00Z,29.2533,-90.6633,66.25,4.98,1111122 
LUMCON,ioos:station:LUMCON:101:1,2017-04-03T07:00:00Z,29.2533,-90.6633,67.81,5.1,1111122 
LUMCON,ioos:station:LUMCON:101:1,2017-04-03T07:15:00Z,29.2533,-90.6633,68.58,5.16,1111122 
LUMCON,ioos:station:LUMCON:101:1,2017-04-03T07:30:00Z,29.2533,-90.6633,70.35,5.3,1111122 
LUMCON,ioos:station:LUMCON:101:1,2017-04-03T07:45:00Z,29.2533,-90.6633,72.06,5.43,1111122 
LUMCON,ioos:station:LUMCON:101:1,2017-04-03T08:00:00Z,29.2533,-90.6633,68.92,5.19,1111122 
LUMCON,ioos:station:LUMCON:101:1,2017-04-03T08:15:00Z,29.2533,-90.6633,71.58,5.4,1111122 
LUMCON,ioos:station:LUMCON:101:1,2017-04-03T08:30:00Z,29.2533,-90.6633,70.16,5.29,1111122 
LUMCON,ioos:station:LUMCON:101:1,2017-04-03T08:45:00Z,29.2533,-90.6633,71.32,5.38,1111122 
LUMCON,ioos:station:LUMCON:101:1,2017-04-03T09:00:00Z,29.2533,-90.6633,72.25,5.45,1111122 
LUMCON,ioos:station:LUMCON:101:1,2017-04-03T09:15:00Z,29.2533,-90.6633,74.67,5.64,1111122 
LUMCON,ioos:station:LUMCON:101:1,2017-04-03T09:30:00Z,29.2533,-90.6633,73.74,5.57,1111122 
LUMCON,ioos:station:LUMCON:101:1,2017-04-03T09:45:00Z,29.2533,-90.6633,74.89,5.66,1111122 
LUMCON,ioos:station:LUMCON:101:1,2017-04-03T10:00:00Z,29.2533,-90.6633,77.05,5.83,1111122 
LUMCON,ioos:station:LUMCON:101:1,2017-04-03T10:15:00Z,29.2533,-90.6633,76.41,5.79,1111122 
LUMCON,ioos:station:LUMCON:101:1,2017-04-03T10:30:00Z,29.2533,-90.6633,76.01,5.76,1111122 
LUMCON,ioos:station:LUMCON:101:1,2017-04-03T10:45:00Z,29.2533,-90.6633,76.41,5.8,1111122 
LUMCON,ioos:station:LUMCON:101:1,2017-04-03T11:00:00Z,29.2533,-90.6633,76.27,5.79,1111122 
LUMCON,ioos:station:LUMCON:101:1,2017-04-03T11:15:00Z,29.2533,-90.6633,76.27,5.79,1111122 
LUMCON,ioos:station:LUMCON:101:1,2017-04-03T11:30:00Z,29.2533,-90.6633,75.83,5.76,1111122 
LUMCON,ioos:station:LUMCON:101:1,2017-04-03T11:45:00Z,29.2533,-90.6633,75.99,5.78,1111122 
LUMCON,ioos:station:LUMCON:101:1,2017-04-03T12:00:00Z,29.2533,-90.6633,73.54,5.59,1111122 
LUMCON,ioos:station:LUMCON:101:1,2017-04-03T12:15:00Z,29.2533,-90.6633,74.49,5.66,1111122 
LUMCON,ioos:station:LUMCON:101:1,2017-04-03T12:30:00Z,29.2533,-90.6633,73.77,5.61,1111122 
LUMCON,ioos:station:LUMCON:101:1,2017-04-03T12:45:00Z,29.2533,-90.6633,71.88,5.46,1111122 
LUMCON,ioos:station:LUMCON:101:1,2017-04-03T13:00:00Z,29.2533,-90.6633,68.14,5.17,1111122 
LUMCON,ioos:station:LUMCON:101:1,2017-04-03T13:15:00Z,29.2533,-90.6633,70.09,5.32,1111122 
LUMCON,ioos:station:LUMCON:101:1,2017-04-03T13:30:00Z,29.2533,-90.6633,73.38,5.57,1111122 
LUMCON,ioos:station:LUMCON:101:1,2017-04-03T13:45:00Z,29.2533,-90.6633,73.96,5.62,1111122 
LUMCON,ioos:station:LUMCON:101:1,2017-04-03T14:00:00Z,29.2533,-90.6633,74.6,5.67,1111122 
LUMCON,ioos:station:LUMCON:101:1,2017-04-03T14:15:00Z,29.2533,-90.6633,78.25,5.94,1111122 
LUMCON,ioos:station:LUMCON:101:1,2017-04-03T14:30:00Z,29.2533,-90.6633,77.96,5.92,1111122 
LUMCON,ioos:station:LUMCON:101:1,2017-04-03T14:45:00Z,29.2533,-90.6633,75.6,5.74,1111122 
LUMCON,ioos:station:LUMCON:101:1,2017-04-03T15:00:00Z,29.2533,-90.6633,78.41,5.96,1111122 
LUMCON,ioos:station:LUMCON:101:1,2017-04-03T15:15:00Z,29.2533,-90.6633,77.83,5.91,1111122 
LUMCON,ioos:station:LUMCON:101:1,2017-04-03T15:30:00Z,29.2533,-90.6633,68.4,5.19,1111122 
LUMCON,ioos:station:LUMCON:101:1,2017-04-03T15:45:00Z,29.2533,-90.6633,69.9,5.3,1111122 
LUMCON,ioos:station:LUMCON:101:1,2017-04-03T16:00:00Z,29.2533,-90.6633,73.13,5.54,1111122 
LUMCON,ioos:station:LUMCON:101:1,2017-04-03T16:15:00Z,29.2533,-90.6633,66.29,5.02,1111122 
LUMCON,ioos:station:LUMCON:101:1,2017-04-03T16:30:00Z,29.2533,-90.6633,63.48,4.81,1111122 
LUMCON,ioos:station:LUMCON:101:1,2017-04-03T16:45:00Z,29.2533,-90.6633,61.84,4.68,1111122 
LUMCON,ioos:station:LUMCON:101:1,2017-04-03T17:00:00Z,29.2533,-90.6633,58.07,4.39,1111122 
LUMCON,ioos:station:LUMCON:101:1,2017-04-03T17:15:00Z,29.2533,-90.6633,56.42,4.26,1111122 
LUMCON,ioos:station:LUMCON:101:1,2017-04-03T17:30:00Z,29.2533,-90.6633,58.87,4.44,1111122 
LUMCON,ioos:station:LUMCON:101:1,2017-04-03T17:45:00Z,29.2533,-90.6633,67.82,5.08,1111122 